EW5461 Weather Reports


Display with metric or nautical units.
time (UTC)temp
F
wind
direction
speed
MPH
gust
MPH
rain 1hr
in
rain 24hr
in
rain mn
in
humidity
%
barometer
mb
20260901071519 84 87 0.0 0.0 0.00 0.00 0.00 52 1013.5
20260901070017 84 87 0.0 1.0 0.00 0.00 0.00 51 1013.4
20260901064515 85 87 0.0 2.0 0.00 0.00 0.00 50 1013.3
20260901063019 85 87 0.0 3.0 0.00 0.00 0.00 50 1013.3
20260901061509 85 69 0.0 2.0 0.00 0.00 0.00 49 1013.0
20260901060025 85 202 0.0 0.0 0.00 0.00 0.00 49 1013.0
20260901054505 85 202 0.0 0.0 0.00 0.00 0.00 48 1012.9
20260901053005 86 202 0.0 1.0 0.00 0.00 0.00 48 1012.7
20260901051607 87 202 0.0 2.0 0.00 0.00 0.00 47 1012.6
20260901050057 87 202 0.0 2.0 0.00 0.00 0.00 46 1012.5
20260901044604 88 202 0.0 1.0 0.00 0.00 0.00 45 1012.4
20260901043056 88 205 0.0 3.0 0.00 0.00 0.00 45 1012.4
20260901041617 88 105 0.0 2.0 0.00 0.00 0.00 45 1012.4
20260901040132 89 99 0.0 3.0 0.00 0.00 0.00 44 1012.4
20260901034553 89 101 0.0 3.0 0.00 0.00 0.00 44 1012.4
20260901033053 89 105 0.0 0.0 0.00 0.00 0.00 45 1012.4
20260901031557 90 129 0.0 0.0 0.00 0.00 0.00 44 1012.3
20260901030055 90 129 0.0 0.0 0.00 0.00 0.00 44 1012.3
20260901024554 90 129 0.0 1.0 0.00 0.00 0.00 45 1012.1
20260901023057 91 129 0.0 0.0 0.00 0.00 0.00 44 1011.9
20260901021550 91 129 0.0 1.0 0.00 0.00 0.00 43 1011.8
20260901020051 92 129 0.0 1.0 0.00 0.00 0.00 42 1011.6
20260901014549 92 129 0.0 1.0 0.00 0.00 0.00 41 1011.4
20260901013055 93 88 0.0 2.0 0.00 0.00 0.00 41 1011.2
20260901011548 94 90 0.0 3.0 0.00 0.00 0.00 40 1011.2
20260901004548 96 86 1.0 6.0 0.00 0.00 0.00 38 1011.1
20260901003047 97 81 1.0 5.0 0.00 0.00 0.00 37 1011.0
20260901001547 98 85 0.0 5.0 0.00 0.00 0.00 37 1011.0
20260901000046 98 205 1.0 5.0 0.00 0.00 0.00 36 1011.1
20260831234545 100 128 2.0 7.0 0.00 0.00 0.00 34 1011.0
20260831233048 100 32 1.0 10.0 0.00 0.00 0.00 33 1011.0
20260831231544 101 51 2.0 8.0 0.00 0.00 0.00 33 1010.9
20260831230053 100 11 2.0 8.0 0.00 0.00 0.00 34 1011.0
20260831224542 99 202 7.0 14.0 0.00 0.00 0.00 33 1011.0
20260831223041 99 155 5.0 10.0 0.00 0.00 0.00 33 1011.2
20260831221545 98 179 4.0 16.0 0.00 0.00 0.00 35 1011.3
20260831220038 98 166 3.0 12.0 0.00 0.00 0.00 36 1011.3
20260831214542 100 174 7.0 16.0 0.00 0.00 0.00 34 1011.5
20260831213038 101 165 3.0 9.0 0.00 0.00 0.00 33 1011.7
20260831211534 103 169 2.0 8.0 0.00 0.00 0.00 31 1011.7
20260831210026 101 139 2.0 8.0 0.00 0.00 0.00 34 1011.9
20260831204525 100 126 7.0 12.0 0.00 0.00 0.00 32 1012.1
20260831203023 100 179 5.0 13.0 0.00 0.00 0.00 34 1012.4
20260831201525 99 171 5.0 13.0 0.00 0.00 0.00 34 1012.6
20260831200021 99 201 3.0 8.0 0.00 0.00 0.00 36 1012.7
20260831194519 101 109 3.0 11.0 0.00 0.00 0.00 33 1012.9
20260831193027 99 114 4.0 15.0 0.00 0.00 0.00 36 1013.0
20260831191516 98 161 2.0 9.0 0.00 0.00 0.00 36 1013.2
20260831190016 97 117 2.0 8.0 0.00 0.00 0.00 38 1013.3
20260831184510 96 140 5.0 12.0 0.00 0.00 0.00 39 1013.5
20260831183008 97 115 5.0 12.0 0.00 0.00 0.00 38 1013.7
20260831181507 97 213 4.0 10.0 0.00 0.00 0.00 39 1013.9
20260831180004 96 142 3.0 11.0 0.00 0.00 0.00 40 1014.2
20260831174501 95 163 5.0 11.0 0.00 0.00 0.00 42 1014.5
20260831173100 95 142 3.0 14.0 0.00 0.00 0.00 42 1014.7
20260831171558 95 155 2.0 12.0 0.00 0.00 0.00 41 1014.8
20260831170055 94 238 3.0 8.0 0.00 0.00 0.00 43 1014.9
20260831164552 93 257 4.0 17.0 0.00 0.00 0.00 45 1014.9
20260831163047 92 193 4.0 9.0 0.00 0.00 0.00 47 1015.0
20260831161550 91 159 4.0 11.0 0.00 0.00 0.00 48 1015.0
20260831160041 90 171 3.0 9.0 0.00 0.00 0.00 49 1015.2
20260831154539 89 147 7.0 10.0 0.00 0.00 0.00 50 1015.2
20260831153034 88 232 4.0 10.0 0.00 0.00 0.00 53 1015.0